[[{"header":{"parameterUnit":"m.s-1","parameterCategory":1,"la1":30.2991,"la2":30.254,"lo1":-89.0895,"lo2":-89.0444,"dy":0.0017,"dx":0.0017,"nx":28,"ny":28,"refTime":"2024-06-25T03:00:00:Z","depth":0,"parameterNumber":2,"parameterNumberName":"U-component_of_WINDS"},"data":[0,0,0,0,0,0,0,0,0,0,0,0,0,0,0,0,0,0,0,0,0,0,0,0,0,0,0,0,0,0,0,0,0,0,0,0,0,0,0,0,0,0,0,0,0,0,0,0,0,0,0,0,0,0,0,0,0,0,5.1392,5.1394,0,5.1589,5.1591,5.1593,5.1555,5.1552,5.1548,5.1545,5.175,5.1758,5.1767,0,0,0,0,0,0,0,0,0,0,0,0,0,5.0986,5.0994,5.1392,5.1394,5.1397,5.1588,5.1591,5.1594,5.1556,5.1552,5.1547,5.1543,5.1747,5.1757,5.1768,0,0,0,0,0,0,0,0,0,0,0,0,0,5.1171,5.0997,5.1391,5.1401,5.1404,5.1588,5.1591,5.1595,5.1557,5.1552,5.1546,5.1541,5.1744,5.1756,5.1769,5.1958,0,0,5.181,5.1815,0,0,0,0,0,0,0,0,5.116,5.1186,5.1397,5.1401,5.1404,5.1542,5.1523,5.1716,5.1558,5.1499,5.1545,5.1539,5.1685,5.1703,5.1752,5.1967,5.1976,5.1811,5.1819,5.1824,5.1828,0,0,0,0,0,0,0,5.1148,5.1177,5.147,5.14,5.1405,5.1396,5.1417,5.156,5.162,5.1504,5.1501,5.1525,5.1686,5.1739,5.1756,5.1979,5.181,5.1822,5.183,5.1835,5.2358,5.2364,0,0,0,0,0,0,5.1131,5.1167,5.1464,5.1476,5.1267,5.1408,5.1431,5.1503,5.1618,5.163,5.1529,5.1522,5.1719,5.1741,5.1763,5.1991,5.1824,5.1837,5.1844,5.2352,5.236,5.2366,0,0,0,0,0,0,5.1123,5.1158,5.1456,5.1321,5.1358,5.1421,5.1502,5.151,5.1563,5.1637,5.1648,5.1572,5.1716,5.1745,5.1909,5.1997,5.1843,5.1855,5.2345,5.2355,5.2363,5.2447,0,0,0,0,0,0,5.1111,5.1155,5.1227,5.1323,5.1365,5.1598,5.1508,5.1518,5.1585,5.1578,5.168,5.1692,5.1714,5.189,5.1922,5.2013,5.1865,5.2338,5.2349,5.236,5.2437,5.2458,5.2476,0,0,0,0,0,5.1097,5.1244,5.1231,5.1267,5.1456,5.1603,5.1627,5.1648,5.1592,5.1665,5.1713,5.1689,5.1982,5.1907,5.1943,5.2039,5.2332,5.2346,5.2359,5.2428,5.2454,5.2475,0,0,0,0,0,0,5.1158,5.1256,5.1243,5.1425,5.1506,5.1596,5.1688,5.1675,5.1774,5.1763,5.1786,5.181,5.1977,5.2024,5.1938,5.2227,5.2149,5.2171,5.2189,5.2214,5.2234,5.2219,5.1876,0,0,0,0,0,5.1192,5.1302,5.1383,5.1536,5.1577,5.1626,5.1691,5.1699,5.1784,5.1819,5.1879,5.1963,5.2074,5.2147,5.2253,5.2443,5.2465,5.2527,5.2547,5.2562,5.2581,5.2684,5.2712,5.241,5.241,5.241,0,0,5.1265,5.1332,5.1401,5.1549,5.1613,5.1727,5.1655,5.1779,5.1864,5.1838,5.1996,5.2044,5.2139,5.2317,5.2398,5.2362,5.2669,5.258,5.2591,5.2601,5.2701,5.2729,5.2755,5.2419,5.2418,5.2416,0,0,5.1455,5.1517,5.1651,5.1716,5.1813,5.1844,5.1876,5.1969,5.1999,5.2158,5.214,5.2243,5.2434,5.2502,5.2562,5.2778,5.276,5.2813,5.2915,5.3015,5.3039,5.306,5.3137,5.3164,5.283,5.2831,5.2831,0,5.1534,5.1704,5.1722,5.1848,5.1914,5.1894,5.203,5.2092,5.2219,5.2266,5.2223,5.2461,5.2525,5.2718,5.277,5.282,5.2857,5.2801,5.3034,5.3056,5.3076,5.3149,5.3178,5.2836,5.2836,5.2835,5.2835,0,5.1795,5.1914,5.2011,5.2132,5.2209,5.2339,5.2378,5.2454,5.2456,5.2492,5.2654,5.2729,5.285,5.2897,5.2901,5.3091,5.3065,5.3028,5.2951,5.311,5.3179,5.3207,5.2844,5.2842,5.2841,5.2839,0,0,5.2031,5.2159,5.2194,5.2249,5.2354,5.2446,5.2576,5.2693,5.2757,5.2846,5.2955,5.3117,5.3083,5.3151,5.3163,5.3251,5.3417,5.3203,5.3206,5.324,5.363,5.3657,5.3689,5.3405,5.341,5.3415,5.3622,0,5.223,5.2457,5.2477,5.2681,5.2791,5.2773,5.2886,5.2963,5.3001,5.31,5.3142,5.3256,5.3202,5.3243,5.333,5.3378,5.3495,5.3363,5.3507,5.3512,5.3483,5.3726,5.3755,5.3946,5.3649,5.3654,5.3657,0,5.2494,5.2588,5.2803,5.2892,5.2939,5.304,5.3148,5.3243,5.333,5.3351,5.3427,5.3426,5.356,5.3478,5.3663,5.3573,5.3633,5.3665,5.3673,5.3687,5.3594,5.3746,5.4008,5.4037,5.37,5.3697,5.3694,0,5.2643,5.2824,5.2976,5.3023,5.3131,5.3202,5.325,5.3332,5.3401,5.3496,5.3541,5.3651,5.3711,5.3797,5.3826,5.3764,5.401,5.393,5.4031,5.4031,5.4084,5.408,5.4359,5.4124,5.4123,5.4123,5.4122,0,5.2864,5.2996,5.3044,5.3138,5.3285,5.3307,5.3452,5.3497,5.357,5.3672,5.3664,5.3761,5.3794,5.3896,5.392,5.4069,5.4097,5.4118,5.4123,5.4118,5.4116,5.4158,5.4145,5.413,5.4129,5.4127,5.4126,0,5.3056,5.3093,5.3257,5.3345,5.337,5.3475,5.3551,5.3641,5.3676,5.3806,5.3837,5.3894,5.4013,5.4051,5.4196,5.4212,5.4386,5.438,5.4356,5.4357,5.4455,5.4445,5.4771,5.4815,5.4551,5.4554,5.4556,0,5.3194,5.3295,5.3393,5.346,5.3511,5.362,5.3689,5.3715,5.3788,5.3894,5.3972,5.409,5.4185,5.4378,5.4432,5.4543,5.4538,5.4645,5.4555,5.4547,5.4539,5.4533,5.4543,5.4662,5.4664,5.4667,5.4668,0,5.3436,5.3449,5.3549,5.3656,5.3739,5.3824,5.3907,5.3962,5.4,5.4082,5.4204,5.4278,5.4425,5.4542,5.4655,5.4705,5.4694,5.4696,5.4725,5.4722,5.4704,5.4714,5.4402,5.4689,5.4687,5.4685,5.4684,5.4683,5.3605,5.3694,5.3776,5.3888,5.3952,5.4029,5.4117,5.4163,5.4265,5.4385,5.4394,5.4525,5.461,5.4759,5.4816,5.4919,5.4889,5.4931,5.4942,5.4952,5.4959,5.4688,5.494,5.4939,5.4939,5.4938,5.4938,0,5.3846,5.3898,5.4,5.4115,5.4202,5.4182,5.4272,5.4347,5.4462,5.4541,5.4635,5.4774,5.4888,5.4951,5.5064,5.5135,5.5132,5.5164,5.5159,5.517,5.498,5.4943,5.5164,5.5164,5.5164,5.5164,5.5164,5.5164,5.3982,5.413,5.4153,5.4333,5.4384,5.4511,5.4564,5.4635,5.4698,5.4853,5.4947,5.4987,5.5059,5.5178,5.5281,5.5297,5.5339,5.5374,5.5386,5.5207,5.5184,5.5162,5.5127,5.5383,5.5383,5.5567,5.5569,5.557]},{"header":{"parameterUnit":"m.s-1","parameterCategory":1,"la1":30.2991,"la2":30.254,"lo1":-89.0895,"lo2":-89.0444,"dy":0.0017,"dx":0.0017,"nx":28,"ny":28,"refTime":"2024-06-25T03:00:00:Z","depth":0,"parameterNumber":3,"parameterNumberName":"V-component_of_WINDS"},"data":[0,0,0,0,0,0,0,0,0,0,0,0,0,0,0,0,0,0,0,0,0,0,0,0,0,0,0,0,0,0,0,0,0,0,0,0,0,0,0,0,0,0,0,0,0,0,0,0,0,0,0,0,0,0,0,0,0,0,-0.4075,-0.4075,0,-0.4083,-0.4083,-0.4083,-0.4106,-0.4107,-0.4107,-0.4108,-0.4114,-0.4114,-0.4114,0,0,0,0,0,0,0,0,0,0,0,0,0,-0.4078,-0.4078,-0.4075,-0.4075,-0.4075,-0.4083,-0.4083,-0.4083,-0.4106,-0.4107,-0.4108,-0.4108,-0.4115,-0.4114,-0.4114,0,0,0,0,0,0,0,0,0,0,0,0,0,-0.408,-0.4078,-0.4075,-0.4087,-0.4089,-0.4083,-0.4083,-0.4083,-0.4106,-0.4107,-0.4108,-0.4109,-0.4115,-0.4114,-0.4114,-0.4095,0,0,-0.4112,-0.4112,0,0,0,0,0,0,0,0,-0.408,-0.408,-0.4085,-0.4087,-0.4088,-0.4094,-0.4086,-0.4087,-0.4106,-0.4099,-0.4108,-0.4109,-0.4107,-0.4107,-0.4107,-0.4096,-0.4096,-0.4112,-0.4112,-0.4112,-0.4112,0,0,0,0,0,0,0,-0.408,-0.408,-0.4078,-0.4085,-0.4087,-0.4092,-0.4094,-0.4087,-0.4099,-0.41,-0.4102,-0.4103,-0.4108,-0.4107,-0.4107,-0.4096,-0.4112,-0.4112,-0.4112,-0.4111,-0.407,-0.4069,0,0,0,0,0,0,-0.4078,-0.408,-0.4077,-0.4078,-0.4086,-0.4092,-0.4093,-0.4091,-0.4099,-0.4101,-0.4102,-0.4104,-0.4108,-0.4108,-0.4108,-0.4086,-0.4112,-0.4111,-0.4111,-0.4071,-0.407,-0.4069,0,0,0,0,0,0,-0.4078,-0.4078,-0.4077,-0.4079,-0.408,-0.4091,-0.4089,-0.4091,-0.4091,-0.41,-0.4102,-0.4099,-0.4108,-0.4108,-0.4098,-0.4087,-0.4111,-0.4111,-0.4072,-0.407,-0.4069,-0.4043,0,0,0,0,0,0,-0.4078,-0.4077,-0.4071,-0.4079,-0.4079,-0.4068,-0.4088,-0.4091,-0.409,-0.4093,-0.4098,-0.41,-0.4109,-0.4099,-0.4098,-0.4087,-0.411,-0.4073,-0.4071,-0.4069,-0.4045,-0.4041,-0.4038,0,0,0,0,0,-0.4078,-0.4063,-0.407,-0.407,-0.4071,-0.4067,-0.4067,-0.4079,-0.4089,-0.4082,-0.4089,-0.41,-0.4088,-0.4098,-0.4097,-0.4085,-0.4073,-0.4071,-0.407,-0.4047,-0.4042,-0.4038,0,0,0,0,0,0,-0.4052,-0.4064,-0.4073,-0.406,-0.4062,-0.4071,-0.4063,-0.4073,-0.4072,-0.4075,-0.4088,-0.4089,-0.4077,-0.408,-0.409,-0.4068,-0.4083,-0.4081,-0.4066,-0.4061,-0.4058,-0.4057,-0.411,0,0,0,0,0,-0.4045,-0.4041,-0.4052,-0.4039,-0.404,-0.4051,-0.405,-0.4059,-0.4062,-0.4063,-0.4068,-0.407,-0.4067,-0.4064,-0.4062,-0.4046,-0.4047,-0.4038,-0.4034,-0.4031,-0.4029,-0.402,-0.4016,-0.4063,-0.4063,-0.4063,0,0,-0.403,-0.4036,-0.4033,-0.4034,-0.4037,-0.4033,-0.4052,-0.4046,-0.4043,-0.4061,-0.4052,-0.4056,-0.406,-0.4047,-0.4041,-0.4049,-0.4016,-0.4029,-0.4026,-0.4026,-0.4018,-0.4013,-0.4009,-0.4061,-0.4062,-0.4062,0,0,-0.4001,-0.4005,-0.3995,-0.3998,-0.4003,-0.401,-0.4008,-0.4015,-0.4019,-0.401,-0.4024,-0.402,-0.4015,-0.4016,-0.4016,-0.3988,-0.3998,-0.3987,-0.3968,-0.3959,-0.3955,-0.3952,-0.3941,-0.3937,-0.3985,-0.3985,-0.3985,0,-0.3981,-0.3975,-0.3988,-0.3982,-0.3982,-0.4,-0.3989,-0.3991,-0.3995,-0.3994,-0.4003,-0.3997,-0.4,-0.3987,-0.3981,-0.398,-0.3977,-0.3986,-0.3955,-0.3952,-0.3949,-0.3939,-0.3935,-0.3983,-0.3983,-0.3984,-0.3984,0,-0.3951,-0.3946,-0.3938,-0.3941,-0.394,-0.3932,-0.3943,-0.3941,-0.395,-0.3956,-0.3947,-0.3952,-0.3951,-0.3949,-0.3957,-0.3937,-0.3942,-0.3953,-0.3968,-0.3943,-0.3934,-0.393,-0.3981,-0.3982,-0.3982,-0.3982,0,0,-0.3904,-0.3916,-0.3912,-0.3914,-0.3921,-0.3917,-0.391,-0.3909,-0.3906,-0.3909,-0.3902,-0.3897,-0.3907,-0.3908,-0.3916,-0.3909,-0.3885,-0.3921,-0.3921,-0.3913,-0.3863,-0.3854,-0.385,-0.3893,-0.3892,-0.3892,-0.3863,0,-0.3875,-0.3863,-0.3875,-0.386,-0.3856,-0.3873,-0.3867,-0.387,-0.3876,-0.3873,-0.3879,-0.3875,-0.389,-0.389,-0.3884,-0.389,-0.3875,-0.3892,-0.3886,-0.3886,-0.3884,-0.3845,-0.3835,-0.3808,-0.3859,-0.3859,-0.3858,0,-0.384,-0.3841,-0.3825,-0.3833,-0.3832,-0.3826,-0.3827,-0.3824,-0.3828,-0.3833,-0.3833,-0.3844,-0.3837,-0.3852,-0.3842,-0.3853,-0.3851,-0.3854,-0.3853,-0.3852,-0.387,-0.3842,-0.3799,-0.3795,-0.3853,-0.3853,-0.3854,0,-0.3806,-0.3804,-0.3794,-0.3795,-0.3805,-0.38,-0.3803,-0.3808,-0.3807,-0.3808,-0.3807,-0.3807,-0.3806,-0.3805,-0.3816,-0.3826,-0.3804,-0.3821,-0.3807,-0.3806,-0.38,-0.38,-0.3756,-0.3801,-0.3801,-0.3801,-0.3801,0,-0.3772,-0.3762,-0.3779,-0.3773,-0.3762,-0.3777,-0.3765,-0.3771,-0.3775,-0.377,-0.3785,-0.378,-0.3794,-0.3791,-0.3799,-0.3789,-0.3788,-0.3792,-0.3794,-0.379,-0.3789,-0.3788,-0.379,-0.38,-0.38,-0.38,-0.38,0,-0.3732,-0.3744,-0.3734,-0.3744,-0.3747,-0.3738,-0.3746,-0.3741,-0.3748,-0.3742,-0.3741,-0.3752,-0.3749,-0.376,-0.3758,-0.3763,-0.3748,-0.3754,-0.3747,-0.3748,-0.3733,-0.3734,-0.3686,-0.368,-0.3729,-0.3729,-0.3729,0,-0.3709,-0.3702,-0.3711,-0.3709,-0.3712,-0.3709,-0.3708,-0.3722,-0.3721,-0.3725,-0.3719,-0.3717,-0.3716,-0.3709,-0.3717,-0.3716,-0.3721,-0.3704,-0.3721,-0.3717,-0.372,-0.3719,-0.3719,-0.37,-0.3699,-0.3699,-0.3699,0,-0.3667,-0.3673,-0.3672,-0.3673,-0.3672,-0.3673,-0.3675,-0.3672,-0.3687,-0.3685,-0.3682,-0.3681,-0.3679,-0.3677,-0.3677,-0.368,-0.3691,-0.3694,-0.369,-0.3685,-0.3681,-0.3683,-0.3736,-0.3694,-0.3695,-0.3695,-0.3695,-0.3695,-0.3635,-0.3629,-0.3635,-0.3633,-0.3636,-0.3637,-0.3633,-0.364,-0.3638,-0.3638,-0.3647,-0.3642,-0.3646,-0.3648,-0.365,-0.3646,-0.3654,-0.3649,-0.3647,-0.3646,-0.3643,-0.3683,-0.3646,-0.3646,-0.3646,-0.3646,-0.3647,0,-0.3593,-0.3598,-0.3596,-0.3598,-0.3597,-0.3609,-0.3612,-0.3609,-0.3605,-0.3608,-0.3607,-0.3604,-0.3601,-0.3609,-0.3608,-0.3603,-0.3609,-0.3603,-0.3602,-0.3603,-0.3636,-0.3639,-0.3598,-0.3598,-0.3598,-0.3598,-0.3598,-0.3598,-0.3571,-0.3561,-0.3568,-0.3561,-0.3565,-0.3561,-0.3562,-0.3563,-0.3566,-0.3561,-0.356,-0.3565,-0.357,-0.357,-0.3568,-0.3571,-0.3569,-0.3561,-0.3565,-0.3596,-0.3601,-0.3605,-0.3608,-0.3561,-0.3561,-0.3532,-0.3531,-0.3531]}]]